Portada
METAR-TAF:

METAR-TAF

Aeropuertos :

Seward, Alaska, Estados Unidos

latitud: 60-07N, longitud: 149-27W, altitud: 9 m

Observación

El informe se hizo hace 12 minutos, a las 04:53 UTC
Viento 7 kt del sur
Temperatura 13°C
Humedad 88%
Presión 1028 hPa
Visibilidad: 16.1 km
Cielo despejado

METAR: PAWD 250453Z AUTO 18007KT 10SM CLR 13/11 A3035 RMK AO2 SLP277 T01330111 TSNO

Hora: 21:05 (05:05 UTC)


TAF: falta

Observaciones y pronósticos meteorológicos de más de 4000 aeropuertos (mensajes METAR y TAF).

Los puntos amarillos y rojos representan las estaciones disponibles.

Ponga el ratón en el punto deseado para ver el nombre de la estación.

Haga clic para ver las observaciones y los pronósticos meteorológicos.

Para cambiar el mapa : haga clic en los botones verdes con una cruz de color negro para hacer un zoom, en el botón verde con un guión para alejar o en las flechas verdes para mapas adyacentes.


METAR-TAF: